User: anonymous   Login
Location: Homewood
(41.1836°S, 175.9581°E)
Time: 01:49:00
(UTC+00:00)
Language:

Spot 4 Rocket - Orbit

View from above orbital plane
View from above orbital plane
View from above satellite
View from above satellite

Ground track
Ground track

The orbit data is extracted from the following two-line orbital elements,

1 25261U 98017B   24175.56623693  .00000521  00000-0  19863-3 0  9998
2 25261  98.8473 177.2212 0004702  95.9115 264.2606 14.35150582372149
Epoch (UTC): 23 June 2024 13:35:22
Eccentricity: 0.0004702
inclination: 98.8473°
perigee height: 771 km
apogee height: 778 km
right ascension of ascending node: 177.2212°
argument of perigee: 95.9115°
revolutions per day: 14.35150582
mean anomaly at epoch: 264.2606°
orbit number at epoch: 37214

The dashed part of the orbit path shows where the satellite is in the earth's shadow,  

DLR